Regional Weather Roundup
Issued by NWS

Home | Current Version | Previous Version | Text Only | Print | Product List | Glossary On
Versions: 1 2 3 4 5 6 7 8 9 10 11 12 13 14 15 16 17 18 19 20 21 22 23 24 25 26 27 28 29 30 31 32 33 34 35 36 37 38 39 40 41 42 43 44 45 46 47 48 49 50
000
ASUS43 KDMX 240501
RWRIA

WEATHER ROUNDUP FOR IOWA
NATIONAL WEATHER SERVICE DES MOINES IA
1200 AM CDT TUE APR 24 2018

NOTE: "FAIR" INDICATES FEW OR NO CLOUDS BELOW 12,000 FEET WITH NO
SIGNIFICANT WEATHER AND/OR OBSTRUCTIONS TO VISIBILITY.

* - THESE STATIONS ARE NOT NWS STATIONS...THUS NOT UNDER NWS
QUALITY CONTROL.  THEY ALSO DO NOT REPORT WEATHER SUCH
AS PRECIPITATION OR FOG.

IAZ001>003-012>014-020>022-031>034-043>046-240600-
   NORTHWEST IOWA

CITY           SKY/WX    TMP DP  RH WIND       PRES   REMARKS
CARROLL *      MOCLDY    50  39  66 NW5       30.13R
CHEROKEE *     CLOUDY    47  42  83 N6        30.14S
DENISON *      CLEAR     50  39  66 E3        30.14R
LE MARS *      CLOUDY    52  41  66 VRB6      30.14R
ORANGE CITY *  CLEAR     52  43  71 E6        30.15R
SHELDON *      CLOUDY    45  41  87 E8        30.13S
SIOUX CITY     CLEAR     53  42  66 E5        30.12R
SPENCER        CLOUDY    45  39  79 N3        30.15S
STORM LAKE *   CLOUDY    48  43  81 NE8       30.14R
$$

IAZ055>058-069>071-079>083-090>094-240600-
   SOUTHWEST IOWA

CITY           SKY/WX    TMP DP  RH WIND       PRES   REMARKS
ATLANTIC *     CLEAR     48  34  57 N6        30.11R
AUDUBON *      CLEAR     48  39  71 N3        30.13R
CLARINDA *     MOCLDY    45  34  65 CALM      30.10S
COUNCIL BLFS * CLEAR     54  32  43 NE8       30.10R
CRESTON *      CLEAR     55  28  35 NE7       30.10R
HARLAN  *      CLEAR     52  37  58 N8        30.14S
LAMONI         CLEAR     55  29  36 N5        30.07S
RED OAK *      CLEAR     46  32  57 NE5       30.10R
SHENANDOAH *   CLEAR     50  32  50 NE5       30.09S
$$

IAZ047>049-059>061-072>074-084-240600-
   CENTRAL IOWA

CITY           SKY/WX    TMP DP  RH WIND       PRES   REMARKS
AMES           CLEAR     53  36  52 NE5       30.10R
ANKENY *       CLEAR     52  32  46 N7        30.11R
BOONE *        CLEAR     52  41  66 N9        30.10S
CHARITON *     CLEAR     55  28  35 NE7       30.07S
DES MOINES     CLEAR     57  31  37 NE7       30.10R
GRINNELL*      CLEAR     53  28  37 NE5       30.10S
KNOXVILLE *    CLEAR     57  27  30 NE6       30.07R
MARSHALLTOWN   CLEAR     46  33  60 NE7       30.09S
NEWTON *       CLEAR     52  28  40 NE6       30.09R
PELLA *        CLEAR     52  27  38 CALM      30.09S
$$

IAZ004>006-015-016-023>025-035-036-240600-
   NORTH CENTRAL IOWA

CITY           SKY/WX    TMP DP  RH WIND       PRES   REMARKS
ALGONA *       CLEAR     50  41  71 N6        30.14S
CLARION *      PTCLDY    46  41  81 N7        30.13R
ESTHERVILLE    CLEAR     42  39  89 NW7       30.15R
FORT DODGE *   CLEAR     52  44  74 N6        30.13S
MASON CITY     CLEAR     44  39  82 NW3       30.14S
FOREST CITY *  FAIR      45  45 100 CALM      30.14R
IOWA FALLS *   FAIR      53  39  61 N5        30.12S
$$

IAZ007>011-017>019-026>030-037>042-050>054-066-240600-
   NORTHEAST IOWA

CITY           SKY/WX    TMP DP  RH WIND       PRES   REMARKS
CEDAR RAPIDS   FAIR      54  30  40 NE10      30.08S
CHARLES CITY * FAIR      52  37  58 NE7       30.12S
CLINTON *      FAIR      49  35  58 E8        30.09S
DECORAH *      FAIR      52  28  40 CALM      30.11R
DUBUQUE        FAIR      49  31  49 NE9       30.10F
MONTICELLO *   FAIR      48  32  53 CALM      30.09S
OELWEIN *      FAIR      50  32  50 NE6       30.11S
WATERLOO       FAIR      44  32  62 CALM      30.10S
$$

IAZ064-065-067-068-078-240600-
   EAST CENTRAL IOWA

CITY           SKY/WX    TMP DP  RH WIND       PRES   REMARKS
DAVENPORT      FAIR      54  32  43 E7        30.09F
IOWA CITY      FAIR      54  27  35 NE7       30.09S
MUSCATINE *    FAIR      55  34  44 NE5       30.08R
QUAD CITIES    FAIR      53  37  54 E6        30.06F
$$

IAZ062-063-075>077-085>089-095>099-240600-
   SOUTHEAST IOWA

CITY           SKY/WX    TMP DP  RH WIND       PRES   REMARKS
BURLINGTON     CLOUDY    56  43  61 E3        30.05S
FAIRFIELD *    CLOUDY    50  28  43 NE9       30.06S
FORT MADISON * CLOUDY    57  46  67 CALM      30.06S
KEOKUK *       CLOUDY    55  50  82 E7        30.05R
OSKALOOSA *    FAIR      49  28  43 NE9       30.07S
CENTERVILLE *    N/A     52  27  37 CALM      30.08R
OTTUMWA        CLEAR     52  28  39 N8        30.06S
WASHINGTON *   PTCLDY    52  32  46 NE8       30.08S
$$

ABBREVIATIONS USED IN REMARKS
   TC - TEMPERATURES IN CELSIUS
  WCI - WIND CHILL INDEX
   HX - HEAT INDEX
  VSB - VISIBILITY
$$




USA.gov is the U.S. government's official web portal to all federal, state and local government web resources and services.